Terminal Aerodrome Forecast
Issued by NWS

Home | Current Version | Previous Version | Text Only | Print | Product List | Glossary On
Versions: 1 2 3 4 5 6 7 8 9 10 11 12 13 14 15 16 17 18 19 20 21 22 23 24
000
FTUS42 KCAE 311100
TAFCUB
TAF
KCUB 311120Z 3112/0112 VRB03KT P6SM BKN100
     FM311400 08006KT P6SM BKN070
     FM311900 09007KT P6SM VCSH SCT030 BKN050
     FM010500 05005KT P6SM SCT015 BKN035
     FM010900 VRB03KT 6SM BR OVC008=

USA.gov is the U.S. government's official web portal to all federal, state and local government web resources and services.